TimeICT,TemperatureF,Dew PointF,Humidity,Sea Level PressureIn,VisibilityMPH,Wind Direction,Wind SpeedMPH,Gust SpeedMPH,PrecipitationIn,Events,Conditions,WindDirDegrees,DateUTC
12:00 AM,77.0,75.2,94,29.83,5.6,Calm,Calm,-,N/A,,Mostly Cloudy,0,2011-11-18 17:00:00
12:30 AM,77.0,75.2,94,29.83,5.6,Calm,Calm,-,N/A,,Mostly Cloudy,0,2011-11-18 17:30:00
1:00 AM,79,77,91,29.80,6,Calm,Calm,,,,Scattered Clouds,,2011-11-18 18:00:00
1:00 AM,77.0,75.2,94,29.83,5.6,Variable,1.2,-,N/A,,Mostly Cloudy,0,2011-11-18 18:00:00
1:30 AM,78.8,75.2,89,29.83,5.6,Variable,1.2,-,N/A,,Mostly Cloudy,0,2011-11-18 18:30:00
2:00 AM,78.8,73.4,83,29.80,5.0,Calm,Calm,-,N/A,,Mostly Cloudy,0,2011-11-18 19:00:00
2:30 AM,78.8,73.4,83,29.80,5.6,Variable,2.3,-,N/A,,Mostly Cloudy,0,2011-11-18 19:30:00
3:00 AM,78.8,73.4,83,29.80,5.0,East,3.5,-,N/A,,Mostly Cloudy,90,2011-11-18 20:00:00
3:30 AM,78.8,73.4,83,29.80,5.0,Calm,Calm,-,N/A,,Mostly Cloudy,0,2011-11-18 20:30:00
4:00 AM,78.8,73.4,83,29.80,5.0,Calm,Calm,-,N/A,,Mostly Cloudy,0,2011-11-18 21:00:00
4:30 AM,78.8,73.4,83,29.80,5.0,Calm,Calm,-,N/A,,Mostly Cloudy,0,2011-11-18 21:30:00
5:00 AM,78.8,73.4,83,29.80,5.0,Variable,1.2,-,N/A,,Mostly Cloudy,0,2011-11-18 22:00:00
5:30 AM,78.8,73.4,83,29.80,5.0,East,3.5,-,N/A,,Mostly Cloudy,90,2011-11-18 22:30:00
6:00 AM,78.8,73.4,83,29.83,5.0,Variable,2.3,-,N/A,,Mostly Cloudy,0,2011-11-18 23:00:00
6:30 AM,78.8,75.2,89,29.83,4.3,East,3.5,-,N/A,,Mostly Cloudy,80,2011-11-18 23:30:00
7:00 AM,80,77,86,29.81,5,Calm,Calm,,,,Mist,,2011-11-19 00:00:00
7:00 AM,-9999,-9999,N/A,29.84,4.3,East,5.8,-,N/A,,Mostly Cloudy,80,2011-11-19 00:00:00
7:30 AM,82.4,75.2,79,29.83,4.3,ENE,5.8,-,N/A,,Mostly Cloudy,70,2011-11-19 00:30:00
8:00 AM,84.2,75.2,74,29.86,4.3,ENE,3.5,-,N/A,,Mostly Cloudy,60,2011-11-19 01:00:00
8:30 AM,84.2,75.2,74,29.86,5.0,NE,5.8,-,N/A,,Mostly Cloudy,50,2011-11-19 01:30:00
9:00 AM,84.2,75.2,74,29.89,5.0,East,9.2,-,N/A,,Mostly Cloudy,80,2011-11-19 02:00:00
9:30 AM,86.0,73.4,66,29.89,5.0,ENE,9.2,-,N/A,,Mostly Cloudy,70,2011-11-19 02:30:00
10:00 AM,86.0,73.4,66,29.89,5.0,ENE,8.1,-,N/A,,Mostly Cloudy,60,2011-11-19 03:00:00
10:30 AM,87.8,71.6,58,29.89,5.0,East,8.1,-,N/A,,Mostly Cloudy,90,2011-11-19 03:30:00
11:00 AM,87.8,71.6,58,29.86,5.0,East,9.2,-,N/A,,Mostly Cloudy,90,2011-11-19 04:00:00
11:30 AM,87.8,73.4,62,29.86,5.0,East,8.1,-,N/A,,Mostly Cloudy,90,2011-11-19 04:30:00
12:00 PM,89.6,71.6,55,29.83,5.0,ENE,6.9,-,N/A,,Mostly Cloudy,70,2011-11-19 05:00:00
1:00 PM,90,73,49,29.80,6,East,4.6,,,,Scattered Clouds,80,2011-11-19 06:00:00
1:00 PM,89.6,73.4,59,29.80,5.0,ENE,8.1,-,N/A,,Mostly Cloudy,70,2011-11-19 06:00:00
1:30 PM,89.6,71.6,55,29.77,5.0,East,5.8,-,N/A,,Mostly Cloudy,80,2011-11-19 06:30:00
2:00 PM,89.6,68.0,49,29.77,5.0,Variable,4.6,-,N/A,,Mostly Cloudy,0,2011-11-19 07:00:00
2:30 PM,89.6,75.2,62,29.74,5.0,WSW,8.1,-,N/A,,Mostly Cloudy,240,2011-11-19 07:30:00
3:00 PM,87.8,75.2,66,29.74,5.0,WSW,10.4,-,N/A,,Mostly Cloudy,250,2011-11-19 08:00:00
3:30 PM,86.0,75.2,70,29.74,5.0,West,8.1,-,N/A,,Mostly Cloudy,260,2011-11-19 08:30:00
4:00 PM,86.0,75.2,70,29.74,4.3,Variable,4.6,-,N/A,,Mostly Cloudy,0,2011-11-19 09:00:00
4:30 PM,80.6,73.4,79,29.74,4.3,Variable,5.8,-,N/A,Rain,Light Rain,0,2011-11-19 09:30:00
5:00 PM,80.6,73.4,79,29.74,4.3,Variable,3.5,-,N/A,Rain,Rain,0,2011-11-19 10:00:00
5:30 PM,80.6,73.4,79,29.74,4.3,Variable,2.3,-,N/A,,Mostly Cloudy,0,2011-11-19 10:30:00
6:00 PM,80.6,73.4,79,29.74,5.0,ENE,3.5,-,N/A,,Mostly Cloudy,60,2011-11-19 11:00:00
6:30 PM,78.8,73.4,83,29.77,5.0,East,2.3,-,N/A,,Mostly Cloudy,80,2011-11-19 11:30:00
7:00 PM,78.8,73.4,83,29.77,5.0,East,3.5,-,N/A,,Mostly Cloudy,80,2011-11-19 12:00:00
7:30 PM,78.8,73.4,83,29.77,5.0,East,3.5,-,N/A,,Mostly Cloudy,90,2011-11-19 12:30:00
8:00 PM,78.8,73.4,83,29.80,5.0,East,3.5,-,N/A,,Mostly Cloudy,90,2011-11-19 13:00:00
8:30 PM,78.8,73.4,83,29.80,5.6,East,3.5,-,N/A,,Mostly Cloudy,90,2011-11-19 13:30:00
9:00 PM,78.8,75.2,89,29.83,5.6,East,4.6,-,N/A,,Mostly Cloudy,80,2011-11-19 14:00:00
9:30 PM,78.8,73.4,83,29.83,6.2,East,3.5,-,N/A,,Scattered Clouds,80,2011-11-19 14:30:00
10:00 PM,78.8,73.4,83,29.83,6.2,Calm,Calm,-,N/A,,Scattered Clouds,0,2011-11-19 15:00:00
10:30 PM,78.8,73.4,83,29.83,6.2,East,5.8,-,N/A,,Scattered Clouds,80,2011-11-19 15:30:00
11:00 PM,80.6,73.4,79,29.83,6.2,ENE,8.1,-,N/A,,Scattered Clouds,60,2011-11-19 16:00:00
11:30 PM,80.6,73.4,79,29.83,6.2,ENE,6.9,-,N/A,,Scattered Clouds,60,2011-11-19 16:30:00